Location: Ahausen
(50.4985°N, 8.2722°E)
Time: 17:58:36
(UTC+00:00)

Tiangong - Visible Passes

Search period start: 27 February 2024 00:00
Search period end: 08 March 2024 00:00
Orbit: 375 x 385 km, 41.5° (Epoch: 26 February)

Date Brightness Start Highest point End Pass type
(mag) Time Alt. Az. Time Alt. Az. Time Alt. Az.
01 Mar 0.8 19:25:02 10° SSW 19:25:05 10° SSW 19:25:05 10° SSW visible
02 Mar 0.1 18:24:16 10° SSW 18:25:51 13° SSE 18:26:47 12° SSE visible
03 Mar 0.0 18:58:38 10° SW 19:00:28 16° S 19:00:28 16° S visible
04 Mar 0.1 17:57:31 10° SSW 17:59:23 15° S 18:01:16 10° SE visible
04 Mar 0.7 19:33:38 10° SW 19:34:02 11° SW 19:34:02 11° SW visible
05 Mar 0.1 18:32:04 10° SW 18:34:03 16° S 18:35:26 12° SSE visible
06 Mar 0.4 19:07:20 10° SW 19:08:36 12° SSW 19:08:52 12° S visible
07 Mar 0.4 18:05:21 10° SW 18:07:08 14° S 18:08:55 10° SSE visible
